Year,Month,Day,Hour,Minute,Value (Times are PST for temperature in C)
2014,08,29,00,00,16.40
2014,08,29,00,01,16.40
2014,08,29,00,02,16.30
2014,08,29,00,03,16.20
2014,08,29,00,04,16.20
2014,08,29,00,05,16.20
2014,08,29,00,06,16.20
2014,08,29,00,07,16.10
2014,08,29,00,08,16.10
2014,08,29,00,09,16.10
2014,08,29,00,10,16.10
2014,08,29,00,11,16.10
2014,08,29,00,12,16.10
2014,08,29,00,13,15.90
2014,08,29,00,14,15.90
2014,08,29,00,15,15.90
2014,08,29,00,16,15.80
2014,08,29,00,17,15.80
2014,08,29,00,18,15.80
2014,08,29,00,19,15.80
2014,08,29,00,20,15.80
2014,08,29,00,21,15.70
2014,08,29,00,22,15.70
2014,08,29,00,23,15.70
2014,08,29,00,24,15.60
2014,08,29,00,25,15.60
2014,08,29,00,26,15.60
2014,08,29,00,27,15.50
2014,08,29,00,28,15.50
2014,08,29,00,29,15.50
2014,08,29,00,30,15.40
2014,08,29,00,31,15.40
2014,08,29,00,32,15.40
2014,08,29,00,33,15.30
2014,08,29,00,34,15.30
2014,08,29,00,35,15.30
2014,08,29,00,36,15.30
2014,08,29,00,37,15.30
2014,08,29,00,38,15.30
2014,08,29,00,39,15.30
2014,08,29,00,40,15.20
2014,08,29,00,41,15.20
2014,08,29,00,42,15.20
2014,08,29,00,43,15.20
2014,08,29,00,44,15.10
2014,08,29,00,45,15.10
2014,08,29,00,46,15.10
2014,08,29,00,47,15.10
2014,08,29,00,48,15.00
2014,08,29,00,49,15.00
2014,08,29,00,50,15.00
2014,08,29,00,51,15.00
2014,08,29,00,52,15.00
2014,08,29,00,53,14.90
2014,08,29,00,54,14.90
2014,08,29,00,55,14.90
2014,08,29,00,56,14.90
2014,08,29,00,57,14.80
2014,08,29,00,58,14.80
2014,08,29,00,59,14.80
2014,08,29,01,00,14.80
2014,08,29,01,01,14.80
2014,08,29,01,02,14.80
2014,08,29,01,03,14.80
2014,08,29,01,04,14.80
2014,08,29,01,05,14.80
2014,08,29,01,06,14.80
2014,08,29,01,07,14.70
2014,08,29,01,08,14.70
2014,08,29,01,09,14.70
2014,08,29,01,10,14.70
2014,08,29,01,11,14.70
2014,08,29,01,12,14.70
2014,08,29,01,13,14.70
2014,08,29,01,14,14.70
2014,08,29,01,15,14.70
2014,08,29,01,16,14.70
2014,08,29,01,17,14.80
2014,08,29,01,18,14.80
2014,08,29,01,19,14.80
2014,08,29,01,20,14.80
2014,08,29,01,21,14.80
2014,08,29,01,22,14.80
2014,08,29,01,23,14.80
2014,08,29,01,24,14.80
2014,08,29,01,25,14.80
2014,08,29,01,26,14.80
2014,08,29,01,27,14.80
2014,08,29,01,28,14.80
2014,08,29,01,29,14.80
2014,08,29,01,30,14.80
2014,08,29,01,31,14.80
2014,08,29,01,32,14.80
2014,08,29,01,33,14.80
2014,08,29,01,34,14.70
2014,08,29,01,35,14.70
2014,08,29,01,36,14.70
2014,08,29,01,37,14.60
2014,08,29,01,38,14.60
2014,08,29,01,39,14.60
2014,08,29,01,40,14.60
2014,08,29,01,41,14.50
2014,08,29,01,42,14.50
2014,08,29,01,43,14.50
2014,08,29,01,44,14.50
2014,08,29,01,45,14.50
2014,08,29,01,46,14.50
2014,08,29,01,47,14.50
2014,08,29,01,48,14.50
2014,08,29,01,49,14.50
2014,08,29,01,50,14.50
2014,08,29,01,51,14.50
2014,08,29,01,52,14.50
2014,08,29,01,53,14.40
2014,08,29,01,54,14.40
2014,08,29,01,55,14.40
2014,08,29,01,56,14.40
2014,08,29,01,57,14.40
2014,08,29,01,58,14.40
2014,08,29,01,59,14.40
2014,08,29,02,00,14.40
2014,08,29,02,01,14.30
2014,08,29,02,02,14.30
2014,08,29,02,03,14.30
2014,08,29,02,04,14.30
2014,08,29,02,05,14.30
2014,08,29,02,06,14.30
2014,08,29,02,07,14.20
2014,08,29,02,08,14.20
2014,08,29,02,09,14.20
2014,08,29,02,10,14.30
2014,08,29,02,11,14.30
2014,08,29,02,12,14.30
2014,08,29,02,13,14.30
2014,08,29,02,14,14.30
2014,08,29,02,15,14.30
2014,08,29,02,16,14.30
2014,08,29,02,17,14.30
2014,08,29,02,18,14.30
2014,08,29,02,19,14.30
2014,08,29,02,20,14.30
2014,08,29,02,21,14.30
2014,08,29,02,22,14.30
2014,08,29,02,23,14.30
2014,08,29,02,24,14.20
2014,08,29,02,25,14.20
2014,08,29,02,26,14.20
2014,08,29,02,27,14.20
2014,08,29,02,28,14.10
2014,08,29,02,29,14.10
2014,08,29,02,30,14.10
2014,08,29,02,31,14.00
2014,08,29,02,32,14.00
2014,08,29,02,33,14.00
2014,08,29,02,34,13.90
2014,08,29,02,35,13.90
2014,08,29,02,36,13.90
2014,08,29,02,37,13.80
2014,08,29,02,38,13.70
2014,08,29,02,39,13.70
2014,08,29,02,40,13.70
2014,08,29,02,41,13.70
2014,08,29,02,42,13.60
2014,08,29,02,43,13.60
2014,08,29,02,44,13.60
2014,08,29,02,45,13.50
2014,08,29,02,46,13.50
2014,08,29,02,47,13.40
2014,08,29,02,48,13.40
2014,08,29,02,49,13.40
2014,08,29,02,50,13.30
2014,08,29,02,51,13.30
2014,08,29,02,52,13.30
2014,08,29,02,53,13.30
2014,08,29,02,54,13.30
2014,08,29,02,55,13.20
2014,08,29,02,56,13.20
2014,08,29,02,57,13.20
2014,08,29,02,58,13.20
2014,08,29,02,59,13.10
2014,08,29,03,00,13.10
2014,08,29,03,01,13.10
2014,08,29,03,02,13.10
2014,08,29,03,03,13.10
2014,08,29,03,04,13.00
2014,08,29,03,05,13.00
2014,08,29,03,06,13.00
2014,08,29,03,07,13.00
2014,08,29,03,08,13.00
2014,08,29,03,09,13.00
2014,08,29,03,10,13.00
2014,08,29,03,11,13.00
2014,08,29,03,12,13.00
2014,08,29,03,13,13.00
2014,08,29,03,14,13.00
2014,08,29,03,15,13.00
2014,08,29,03,16,13.10
2014,08,29,03,17,13.20
2014,08,29,03,18,13.20
2014,08,29,03,19,13.30
2014,08,29,03,20,13.30
2014,08,29,03,21,13.40
2014,08,29,03,22,13.50
2014,08,29,03,23,13.70
2014,08,29,03,24,13.80
2014,08,29,03,25,14.00
2014,08,29,03,26,14.20
2014,08,29,03,27,14.30
2014,08,29,03,28,14.50
2014,08,29,03,29,14.60
2014,08,29,03,30,14.80
2014,08,29,03,31,14.90
2014,08,29,03,32,15.00
2014,08,29,03,33,15.10
2014,08,29,03,34,15.20
2014,08,29,03,35,15.30
2014,08,29,03,36,15.40
2014,08,29,03,37,15.50
2014,08,29,03,38,15.60
2014,08,29,03,39,15.70
2014,08,29,03,40,15.80
2014,08,29,03,41,15.80
2014,08,29,03,42,15.90
2014,08,29,03,43,16.00
2014,08,29,03,44,16.10
2014,08,29,03,45,16.10
2014,08,29,03,46,16.10
2014,08,29,03,47,16.20
2014,08,29,03,48,16.20
2014,08,29,03,49,16.20
2014,08,29,03,50,16.30
2014,08,29,03,51,16.30
2014,08,29,03,52,16.30
2014,08,29,03,53,16.30
2014,08,29,03,54,16.30
2014,08,29,03,55,16.30
2014,08,29,03,56,16.30
2014,08,29,03,57,16.30
2014,08,29,03,58,16.30
2014,08,29,03,59,16.30
2014,08,29,04,00,16.30
2014,08,29,04,01,16.30
2014,08,29,04,02,16.20
2014,08,29,04,03,16.20
2014,08,29,04,04,16.10
2014,08,29,04,05,16.00
2014,08,29,04,06,15.80
2014,08,29,04,07,15.70
2014,08,29,04,08,15.60
2014,08,29,04,09,15.50
2014,08,29,04,10,15.30
2014,08,29,04,11,15.20
2014,08,29,04,12,15.10
2014,08,29,04,13,15.00
2014,08,29,04,14,14.80
2014,08,29,04,15,14.70
2014,08,29,04,16,14.60
2014,08,29,04,17,14.50
2014,08,29,04,18,14.30
2014,08,29,04,19,14.20
2014,08,29,04,20,14.10
2014,08,29,04,21,14.00
2014,08,29,04,22,13.90
2014,08,29,04,23,13.80
2014,08,29,04,24,13.80
2014,08,29,04,25,13.70
2014,08,29,04,26,13.60
2014,08,29,04,27,13.60
2014,08,29,04,28,13.50
2014,08,29,04,29,13.50
2014,08,29,04,30,13.40
2014,08,29,04,31,13.30
2014,08,29,04,32,13.30
2014,08,29,04,33,13.30
2014,08,29,04,34,13.30
2014,08,29,04,35,13.30
2014,08,29,04,36,13.30
2014,08,29,04,37,13.20
2014,08,29,04,38,13.20
2014,08,29,04,39,13.10
2014,08,29,04,40,13.10
2014,08,29,04,41,13.10
2014,08,29,04,42,13.10
2014,08,29,04,43,13.00
2014,08,29,04,44,13.00
2014,08,29,04,45,13.00
2014,08,29,04,46,13.00
2014,08,29,04,47,12.90
2014,08,29,04,48,12.90
2014,08,29,04,49,12.90
2014,08,29,04,50,12.90
2014,08,29,04,51,12.90
2014,08,29,04,52,12.80
2014,08,29,04,53,12.80
2014,08,29,04,54,12.80
2014,08,29,04,55,12.80
2014,08,29,04,56,12.80
2014,08,29,04,57,12.80
2014,08,29,04,58,12.80
2014,08,29,04,59,12.80
2014,08,29,05,00,12.80
2014,08,29,05,01,12.80
2014,08,29,05,02,12.70
2014,08,29,05,03,12.70
2014,08,29,05,04,12.70
2014,08,29,05,05,12.70
2014,08,29,05,06,12.70
2014,08,29,05,07,12.60
2014,08,29,05,08,12.60
2014,08,29,05,09,12.60
2014,08,29,05,10,12.60
2014,08,29,05,11,12.60
2014,08,29,05,12,12.60
2014,08,29,05,13,12.60
2014,08,29,05,14,12.50
2014,08,29,05,15,12.50
2014,08,29,05,16,12.50
2014,08,29,05,17,12.50
2014,08,29,05,18,12.50
2014,08,29,05,19,12.50
2014,08,29,05,20,12.50
2014,08,29,05,21,12.50
2014,08,29,05,22,12.40
2014,08,29,05,23,12.40
2014,08,29,05,24,12.40
2014,08,29,05,25,12.40
2014,08,29,05,26,12.40
2014,08,29,05,27,12.40
2014,08,29,05,28,12.40
2014,08,29,05,29,12.40
2014,08,29,05,30,12.30
2014,08,29,05,31,12.30
2014,08,29,05,32,12.30
2014,08,29,05,33,12.40
2014,08,29,05,34,12.40
2014,08,29,05,35,12.50
2014,08,29,05,36,12.50
2014,08,29,05,37,12.60
2014,08,29,05,38,12.60
2014,08,29,05,39,12.70
2014,08,29,05,40,12.80
2014,08,29,05,41,12.80
2014,08,29,05,42,13.00
2014,08,29,05,43,13.00
2014,08,29,05,44,13.10
2014,08,29,05,45,13.20
2014,08,29,05,46,13.30
2014,08,29,05,47,13.30
2014,08,29,05,48,13.30
2014,08,29,05,49,13.40
2014,08,29,05,50,13.40
2014,08,29,05,51,13.40
2014,08,29,05,52,13.40
2014,08,29,05,53,13.40
2014,08,29,05,54,13.40
2014,08,29,05,55,13.40
2014,08,29,05,56,13.40
2014,08,29,05,57,13.50
2014,08,29,05,58,13.50
2014,08,29,05,59,13.50
2014,08,29,06,00,13.50
2014,08,29,06,01,13.60
2014,08,29,06,02,13.60
2014,08,29,06,03,13.60
2014,08,29,06,04,13.70
2014,08,29,06,05,13.70
2014,08,29,06,06,13.70
2014,08,29,06,07,13.80
2014,08,29,06,08,13.80
2014,08,29,06,09,13.80
2014,08,29,06,10,13.80
2014,08,29,06,11,13.80
2014,08,29,06,12,13.80
2014,08,29,06,13,13.80
2014,08,29,06,14,13.80
2014,08,29,06,15,13.80
2014,08,29,06,16,13.70
2014,08,29,06,17,13.70
2014,08,29,06,18,13.70
2014,08,29,06,19,13.70
2014,08,29,06,20,13.70
2014,08,29,06,21,13.60
2014,08,29,06,22,13.60
2014,08,29,06,23,13.50
2014,08,29,06,24,13.60
2014,08,29,06,25,13.70
2014,08,29,06,26,13.70
2014,08,29,06,27,13.80
2014,08,29,06,28,13.90
2014,08,29,06,29,14.00
2014,08,29,06,30,14.10
2014,08,29,06,31,14.20
2014,08,29,06,32,14.20
2014,08,29,06,33,14.30
2014,08,29,06,34,14.40
2014,08,29,06,35,14.50
2014,08,29,06,36,14.50
2014,08,29,06,37,14.50
2014,08,29,06,38,14.60
2014,08,29,06,39,14.60
2014,08,29,06,40,14.70
2014,08,29,06,41,14.80
2014,08,29,06,42,14.80
2014,08,29,06,43,14.80
2014,08,29,06,44,14.80
2014,08,29,06,45,14.90
2014,08,29,06,46,14.90
2014,08,29,06,47,14.90
2014,08,29,06,48,15.00
2014,08,29,06,49,15.00
2014,08,29,06,50,15.10
2014,08,29,06,51,15.10
2014,08,29,06,52,15.10
2014,08,29,06,53,15.20
2014,08,29,06,54,15.20
2014,08,29,06,55,15.30
2014,08,29,06,56,15.30
2014,08,29,06,57,15.30
2014,08,29,06,58,15.40
2014,08,29,06,59,15.40
2014,08,29,07,00,15.40
2014,08,29,07,01,15.40
2014,08,29,07,02,15.50
2014,08,29,07,03,15.50
2014,08,29,07,04,15.50
2014,08,29,07,05,15.50
2014,08,29,07,06,15.60
2014,08,29,07,07,15.60
2014,08,29,07,08,15.60
2014,08,29,07,09,15.70
2014,08,29,07,10,15.70
2014,08,29,07,11,15.70
2014,08,29,07,12,15.80
2014,08,29,07,13,15.80
2014,08,29,07,14,15.80
2014,08,29,07,15,15.80
2014,08,29,07,16,15.80
2014,08,29,07,17,15.80
2014,08,29,07,18,15.80
2014,08,29,07,19,15.80
2014,08,29,07,20,15.90
2014,08,29,07,21,15.90
2014,08,29,07,22,15.90
2014,08,29,07,23,16.00
2014,08,29,07,24,16.10
2014,08,29,07,25,16.10
2014,08,29,07,26,16.10
2014,08,29,07,27,16.10
2014,08,29,07,28,16.10
2014,08,29,07,29,16.10
2014,08,29,07,30,16.10
2014,08,29,07,31,16.10
2014,08,29,07,32,16.10
2014,08,29,07,33,16.10
2014,08,29,07,34,16.10
2014,08,29,07,35,16.20
2014,08,29,07,36,16.20
2014,08,29,07,37,16.20
2014,08,29,07,38,16.20
2014,08,29,07,39,16.20
2014,08,29,07,40,16.20
2014,08,29,07,41,16.20
2014,08,29,07,42,16.20
2014,08,29,07,43,16.20
2014,08,29,07,44,16.20
2014,08,29,07,45,16.20
2014,08,29,07,46,16.20
2014,08,29,07,47,16.20
2014,08,29,07,48,16.20
2014,08,29,07,49,16.20
2014,08,29,07,50,16.20
2014,08,29,07,51,16.20
2014,08,29,07,52,16.30
2014,08,29,07,53,16.30
2014,08,29,07,54,16.30
2014,08,29,07,55,16.30
2014,08,29,07,56,16.30
2014,08,29,07,57,16.40
2014,08,29,07,58,16.40
2014,08,29,07,59,16.40
2014,08,29,08,00,16.40
2014,08,29,08,01,16.40
2014,08,29,08,02,16.50
2014,08,29,08,03,16.60
2014,08,29,08,04,16.60
2014,08,29,08,05,16.60
2014,08,29,08,06,16.60
2014,08,29,08,07,16.70
2014,08,29,08,08,16.70
2014,08,29,08,09,16.70
2014,08,29,08,10,16.70
2014,08,29,08,11,16.70
2014,08,29,08,12,16.80
2014,08,29,08,13,16.80
2014,08,29,08,14,16.80
2014,08,29,08,15,16.80
2014,08,29,08,16,16.90
2014,08,29,08,17,16.90
2014,08,29,08,18,16.90
2014,08,29,08,19,16.90
2014,08,29,08,20,16.90
2014,08,29,08,21,17.00
2014,08,29,08,22,17.00
2014,08,29,08,23,17.00
2014,08,29,08,24,17.00
2014,08,29,08,25,17.00
2014,08,29,08,26,17.00
2014,08,29,08,27,17.10
2014,08,29,08,28,17.10
2014,08,29,08,29,17.10
2014,08,29,08,30,17.10
2014,08,29,08,31,17.10
2014,08,29,08,32,17.10
2014,08,29,08,33,17.10
2014,08,29,08,34,17.10
2014,08,29,08,35,17.10
2014,08,29,08,36,17.10
2014,08,29,08,37,17.10
2014,08,29,08,38,17.00
2014,08,29,08,39,17.00
2014,08,29,08,40,17.00
2014,08,29,08,41,17.00
2014,08,29,08,42,17.00
2014,08,29,08,43,17.00
2014,08,29,08,44,17.00
2014,08,29,08,45,17.00
2014,08,29,08,46,17.00
2014,08,29,08,47,17.00
2014,08,29,08,48,17.00
2014,08,29,08,49,17.00
2014,08,29,08,50,17.00
2014,08,29,08,51,17.00
2014,08,29,08,52,17.10
2014,08,29,08,53,17.10
2014,08,29,08,54,17.10
2014,08,29,08,55,17.20
2014,08,29,08,56,17.20
2014,08,29,08,57,17.30
2014,08,29,08,58,17.30
2014,08,29,08,59,17.30
2014,08,29,09,00,17.30
2014,08,29,09,01,17.30
2014,08,29,09,02,17.30
2014,08,29,09,03,17.30
2014,08,29,09,04,17.30
2014,08,29,09,05,17.40
2014,08,29,09,06,17.40
2014,08,29,09,07,17.40
2014,08,29,09,08,17.40
2014,08,29,09,09,17.40
2014,08,29,09,10,17.40
2014,08,29,09,11,17.50
2014,08,29,09,12,17.50
2014,08,29,09,13,17.50
2014,08,29,09,14,17.50
2014,08,29,09,15,17.50
2014,08,29,09,16,17.50
2014,08,29,09,17,17.50
2014,08,29,09,18,17.60
2014,08,29,09,19,17.60
2014,08,29,09,20,17.60
2014,08,29,09,21,17.60
2014,08,29,09,22,17.60
2014,08,29,09,23,17.60
2014,08,29,09,24,17.60
2014,08,29,09,25,17.70
2014,08,29,09,26,17.70
2014,08,29,09,27,17.70
2014,08,29,09,28,17.70
2014,08,29,09,29,17.70
2014,08,29,09,30,17.70
2014,08,29,09,31,17.70
2014,08,29,09,32,17.70
2014,08,29,09,33,17.80
2014,08,29,09,34,17.80
2014,08,29,09,35,17.80
2014,08,29,09,36,17.80
2014,08,29,09,37,17.80
2014,08,29,09,38,17.80
2014,08,29,09,39,17.80
2014,08,29,09,40,17.80
2014,08,29,09,41,17.90
2014,08,29,09,42,17.90
2014,08,29,09,43,17.90
2014,08,29,09,44,17.90
2014,08,29,09,45,17.90
2014,08,29,09,46,17.90
2014,08,29,09,47,17.90
2014,08,29,09,48,17.90
2014,08,29,09,49,17.90
2014,08,29,09,50,17.90
2014,08,29,09,51,17.90
2014,08,29,09,52,17.90
2014,08,29,09,53,17.90
2014,08,29,09,54,17.90
2014,08,29,09,55,17.90
2014,08,29,09,56,17.90
2014,08,29,09,57,17.90
2014,08,29,09,58,17.90
2014,08,29,09,59,17.90
2014,08,29,10,00,17.90
2014,08,29,10,01,17.90
2014,08,29,10,02,17.90
2014,08,29,10,03,17.90
2014,08,29,10,04,17.90
2014,08,29,10,05,17.90
2014,08,29,10,06,17.90
2014,08,29,10,07,17.90
2014,08,29,10,08,17.90
2014,08,29,10,09,17.90
2014,08,29,10,10,17.90
2014,08,29,10,11,17.80
2014,08,29,10,12,17.70
2014,08,29,10,13,17.70
2014,08,29,10,14,17.70
2014,08,29,10,15,17.70
2014,08,29,10,16,17.60
2014,08,29,10,17,17.60
2014,08,29,10,18,17.60
2014,08,29,10,19,17.60
2014,08,29,10,20,17.60
2014,08,29,10,21,17.60
2014,08,29,10,22,17.60
2014,08,29,10,23,17.60
2014,08,29,10,24,17.60
2014,08,29,10,25,17.50
2014,08,29,10,26,17.40
2014,08,29,10,27,17.30
2014,08,29,10,28,17.10
2014,08,29,10,29,17.00
2014,08,29,10,30,16.80
2014,08,29,10,31,16.70
2014,08,29,10,32,16.60
2014,08,29,10,33,16.40
2014,08,29,10,34,16.40
2014,08,29,10,35,16.30
2014,08,29,10,36,16.20
2014,08,29,10,37,16.10
2014,08,29,10,38,15.90
2014,08,29,10,39,15.70
2014,08,29,10,40,15.60
2014,08,29,10,41,15.60
2014,08,29,10,42,15.60
2014,08,29,10,43,15.60
2014,08,29,10,44,15.60
2014,08,29,10,45,15.70
2014,08,29,10,46,15.70
2014,08,29,10,47,15.70
2014,08,29,10,48,15.80
2014,08,29,10,49,15.80
2014,08,29,10,50,15.80
2014,08,29,10,51,15.90
2014,08,29,10,52,16.00
2014,08,29,10,53,16.10
2014,08,29,10,54,16.20
2014,08,29,10,55,16.30
2014,08,29,10,56,16.40
2014,08,29,10,57,16.40
2014,08,29,10,58,16.50
2014,08,29,10,59,16.60
2014,08,29,11,00,16.60
2014,08,29,11,01,16.60
2014,08,29,11,02,16.60
2014,08,29,11,03,16.60
2014,08,29,11,04,16.60
2014,08,29,11,05,16.60
2014,08,29,11,06,16.70
2014,08,29,11,07,16.80
2014,08,29,11,08,16.90
2014,08,29,11,09,17.00
2014,08,29,11,10,17.10
2014,08,29,11,11,17.20
2014,08,29,11,12,17.30
2014,08,29,11,13,17.30
2014,08,29,11,14,17.30
2014,08,29,11,15,17.30
2014,08,29,11,16,17.30
2014,08,29,11,17,17.30
2014,08,29,11,18,17.30
2014,08,29,11,19,17.30
2014,08,29,11,20,17.40
2014,08,29,11,21,17.50
2014,08,29,11,22,17.60
2014,08,29,11,23,17.70
2014,08,29,11,24,17.80
2014,08,29,11,25,18.00
2014,08,29,11,26,18.10
2014,08,29,11,27,18.30
2014,08,29,11,28,18.40
2014,08,29,11,29,18.60
2014,08,29,11,30,18.70
2014,08,29,11,31,18.90
2014,08,29,11,32,19.10
2014,08,29,11,33,19.20
2014,08,29,11,34,19.30
2014,08,29,11,35,19.50
2014,08,29,11,36,19.60
2014,08,29,11,37,19.70
2014,08,29,11,38,19.70
2014,08,29,11,39,19.80
2014,08,29,11,40,19.90
2014,08,29,11,41,20.00
2014,08,29,11,42,20.10
2014,08,29,11,43,20.10
2014,08,29,11,44,20.10
2014,08,29,11,45,20.20
2014,08,29,11,46,20.20
2014,08,29,11,47,20.30
2014,08,29,11,48,20.20
2014,08,29,11,49,20.20
2014,08,29,11,50,20.20
2014,08,29,11,51,20.10
2014,08,29,11,52,20.10
2014,08,29,11,53,20.10
2014,08,29,11,54,20.10
2014,08,29,11,55,20.10
2014,08,29,11,56,20.10
2014,08,29,11,57,20.20
2014,08,29,11,58,20.20
2014,08,29,11,59,20.30
2014,08,29,12,00,20.40
2014,08,29,12,01,20.40
2014,08,29,12,02,20.50
2014,08,29,12,03,20.50
2014,08,29,12,04,20.50
2014,08,29,12,05,20.60
2014,08,29,12,06,20.50
2014,08,29,12,07,20.30
2014,08,29,12,08,20.20
2014,08,29,12,09,20.00
2014,08,29,12,10,19.90
2014,08,29,12,11,19.80
2014,08,29,12,12,19.80
2014,08,29,12,13,19.70
2014,08,29,12,14,19.70
2014,08,29,12,15,19.70
2014,08,29,12,16,19.60
2014,08,29,12,17,19.60
2014,08,29,12,18,19.60
2014,08,29,12,19,19.60
2014,08,29,12,20,19.60
2014,08,29,12,21,19.70
2014,08,29,12,22,19.80
2014,08,29,12,23,19.90
2014,08,29,12,24,19.90
2014,08,29,12,25,19.90
2014,08,29,12,26,19.90
2014,08,29,12,27,19.90
2014,08,29,12,28,20.00
2014,08,29,12,29,20.10
2014,08,29,12,30,20.10
2014,08,29,12,31,20.10
2014,08,29,12,32,20.10
2014,08,29,12,33,20.10
2014,08,29,12,34,20.10
2014,08,29,12,35,20.10
2014,08,29,12,36,20.10
2014,08,29,12,37,20.00
2014,08,29,12,38,19.90
2014,08,29,12,39,19.90
2014,08,29,12,40,19.80
2014,08,29,12,41,19.60
2014,08,29,12,42,19.50
2014,08,29,12,43,19.40
2014,08,29,12,44,19.40
2014,08,29,12,45,19.30
2014,08,29,12,46,19.20
2014,08,29,12,47,19.20
2014,08,29,12,48,19.20
2014,08,29,12,49,19.20
2014,08,29,12,50,19.20
2014,08,29,12,51,19.30
2014,08,29,12,52,19.40
2014,08,29,12,53,19.50
2014,08,29,12,54,19.60
2014,08,29,12,55,19.60
2014,08,29,12,56,19.70
2014,08,29,12,57,19.80
2014,08,29,12,58,19.90
2014,08,29,12,59,19.90
2014,08,29,13,00,20.00
2014,08,29,13,01,20.10
2014,08,29,13,02,20.10
2014,08,29,13,03,20.20
2014,08,29,13,04,20.20
2014,08,29,13,05,20.20
2014,08,29,13,06,20.20
2014,08,29,13,07,20.20
2014,08,29,13,08,20.20
2014,08,29,13,09,20.20
2014,08,29,13,10,20.20
2014,08,29,13,11,20.20
2014,08,29,13,12,20.20
2014,08,29,13,13,20.20
2014,08,29,13,14,20.20
2014,08,29,13,15,20.20
2014,08,29,13,16,20.20
2014,08,29,13,17,20.20
2014,08,29,13,18,20.20
2014,08,29,13,19,20.20
2014,08,29,13,20,20.20
2014,08,29,13,21,20.20
2014,08,29,13,22,20.20
2014,08,29,13,23,20.20
2014,08,29,13,24,20.20
2014,08,29,13,25,20.20
2014,08,29,13,26,20.20
2014,08,29,13,27,20.20
2014,08,29,13,28,20.20
2014,08,29,13,29,20.20
2014,08,29,13,30,20.20
2014,08,29,13,31,20.20
2014,08,29,13,32,20.10
2014,08,29,13,33,20.10
2014,08,29,13,34,20.10
2014,08,29,13,35,20.20
2014,08,29,13,36,20.20
2014,08,29,13,37,20.20
2014,08,29,13,38,20.20
2014,08,29,13,39,20.20
2014,08,29,13,40,20.30
2014,08,29,13,41,20.20
2014,08,29,13,42,20.20
2014,08,29,13,43,20.20
2014,08,29,13,44,20.30
2014,08,29,13,45,20.30
2014,08,29,13,46,20.30
2014,08,29,13,47,20.30
2014,08,29,13,48,20.40
2014,08,29,13,49,20.50
2014,08,29,13,50,20.50
2014,08,29,13,51,20.50
2014,08,29,13,52,20.60
2014,08,29,13,53,20.70
2014,08,29,13,54,20.70
2014,08,29,13,55,20.80
2014,08,29,13,56,20.90
2014,08,29,13,57,21.00
2014,08,29,13,58,21.00
2014,08,29,13,59,21.00
2014,08,29,14,00,21.00
2014,08,29,14,01,21.00
2014,08,29,14,02,20.90
2014,08,29,14,03,20.80
2014,08,29,14,04,20.70
2014,08,29,14,05,20.70
2014,08,29,14,06,20.60
2014,08,29,14,07,20.60
2014,08,29,14,08,20.70
2014,08,29,14,09,20.70
2014,08,29,14,10,20.70
2014,08,29,14,11,20.80
2014,08,29,14,12,20.80
2014,08,29,14,13,20.90
2014,08,29,14,14,21.00
2014,08,29,14,15,21.10
2014,08,29,14,16,21.10
2014,08,29,14,17,21.20
2014,08,29,14,18,21.20
2014,08,29,14,19,21.30
2014,08,29,14,20,21.30
2014,08,29,14,21,21.40
2014,08,29,14,22,21.40
2014,08,29,14,23,21.40
2014,08,29,14,24,21.30
2014,08,29,14,25,21.20
2014,08,29,14,26,21.10
2014,08,29,14,27,21.00
2014,08,29,14,28,21.00
2014,08,29,14,29,20.90
2014,08,29,14,30,20.90
2014,08,29,14,31,21.00
2014,08,29,14,32,21.00
2014,08,29,14,33,21.00
2014,08,29,14,34,21.10
2014,08,29,14,35,21.10
2014,08,29,14,36,21.10
2014,08,29,14,37,21.10
2014,08,29,14,38,21.10
2014,08,29,14,39,21.10
2014,08,29,14,40,21.10
2014,08,29,14,41,21.10
2014,08,29,14,42,21.20
2014,08,29,14,43,21.10
2014,08,29,14,44,20.90
2014,08,29,14,45,20.80
2014,08,29,14,46,20.60
2014,08,29,14,47,20.40
2014,08,29,14,48,20.30
2014,08,29,14,49,20.20
2014,08,29,14,50,20.20
2014,08,29,14,51,20.20
2014,08,29,14,52,20.20
2014,08,29,14,53,20.20
2014,08,29,14,54,20.20
2014,08,29,14,55,20.20
2014,08,29,14,56,20.20
2014,08,29,14,57,20.20
2014,08,29,14,58,20.20
2014,08,29,14,59,20.10
2014,08,29,15,00,20.10
2014,08,29,15,01,20.10
2014,08,29,15,02,20.00
2014,08,29,15,03,19.90
2014,08,29,15,04,19.90
2014,08,29,15,05,19.90
2014,08,29,15,06,19.90
2014,08,29,15,07,19.90
2014,08,29,15,08,19.80
2014,08,29,15,09,19.80
2014,08,29,15,10,19.70
2014,08,29,15,11,19.70
2014,08,29,15,12,19.60
2014,08,29,15,13,19.60
2014,08,29,15,14,19.60
2014,08,29,15,15,19.50
2014,08,29,15,16,19.50
2014,08,29,15,17,19.50
2014,08,29,15,18,19.40
2014,08,29,15,19,19.40
2014,08,29,15,20,19.30
2014,08,29,15,21,19.20
2014,08,29,15,22,19.10
2014,08,29,15,23,19.10
2014,08,29,15,24,19.10
2014,08,29,15,25,19.10
2014,08,29,15,26,19.20
2014,08,29,15,27,19.20
2014,08,29,15,28,19.10
2014,08,29,15,29,19.10
2014,08,29,15,30,19.10
2014,08,29,15,31,19.10
2014,08,29,15,32,19.10
2014,08,29,15,33,19.20
2014,08,29,15,34,19.10
2014,08,29,15,35,19.20
2014,08,29,15,36,19.20
2014,08,29,15,37,19.20
2014,08,29,15,38,19.20
2014,08,29,15,39,19.30
2014,08,29,15,40,19.30
2014,08,29,15,41,19.40
2014,08,29,15,42,19.40
2014,08,29,15,43,19.40
2014,08,29,15,44,19.50
2014,08,29,15,45,19.60
2014,08,29,15,46,19.60
2014,08,29,15,47,19.60
2014,08,29,15,48,19.50
2014,08,29,15,49,19.60
2014,08,29,15,50,19.60
2014,08,29,15,51,19.60
2014,08,29,15,52,19.60
2014,08,29,15,53,19.60
2014,08,29,15,54,19.70
2014,08,29,15,55,19.70
2014,08,29,15,56,19.80
2014,08,29,15,57,19.80
2014,08,29,15,58,19.90
2014,08,29,15,59,19.90
2014,08,29,16,00,20.00
2014,08,29,16,01,20.10
2014,08,29,16,02,20.20
2014,08,29,16,03,20.20
2014,08,29,16,04,20.20
2014,08,29,16,05,20.20
2014,08,29,16,06,20.20
2014,08,29,16,07,20.20
2014,08,29,16,08,20.20
2014,08,29,16,09,20.10
2014,08,29,16,10,20.10
2014,08,29,16,11,20.10
2014,08,29,16,12,20.00
2014,08,29,16,13,19.90
2014,08,29,16,14,20.00
2014,08,29,16,15,20.10
2014,08,29,16,16,20.10
2014,08,29,16,17,20.10
2014,08,29,16,18,20.20
2014,08,29,16,19,20.20
2014,08,29,16,20,20.20
2014,08,29,16,21,20.20
2014,08,29,16,22,20.30
2014,08,29,16,23,20.20
2014,08,29,16,24,20.20
2014,08,29,16,25,20.30
2014,08,29,16,26,20.30
2014,08,29,16,27,20.40
2014,08,29,16,28,20.50
2014,08,29,16,29,20.50
2014,08,29,16,30,20.50
2014,08,29,16,31,20.50
2014,08,29,16,32,20.50
2014,08,29,16,33,20.50
2014,08,29,16,34,20.40
2014,08,29,16,35,20.40
2014,08,29,16,36,20.40
2014,08,29,16,37,20.30
2014,08,29,16,38,20.20
2014,08,29,16,39,20.10
2014,08,29,16,40,20.10
2014,08,29,16,41,20.10
2014,08,29,16,42,20.10
2014,08,29,16,43,20.10
2014,08,29,16,44,20.00
2014,08,29,16,45,19.90
2014,08,29,16,46,19.90
2014,08,29,16,47,19.90
2014,08,29,16,48,19.90
2014,08,29,16,49,19.90
2014,08,29,16,50,20.00
2014,08,29,16,51,20.10
2014,08,29,16,52,20.20
2014,08,29,16,53,20.20
2014,08,29,16,54,20.30
2014,08,29,16,55,20.40
2014,08,29,16,56,20.50
2014,08,29,16,57,20.60
2014,08,29,16,58,20.70
2014,08,29,16,59,20.70
2014,08,29,17,00,20.80
2014,08,29,17,01,20.90
2014,08,29,17,02,21.00
2014,08,29,17,03,21.00
2014,08,29,17,04,21.00
2014,08,29,17,05,21.00
2014,08,29,17,06,21.10
2014,08,29,17,07,21.10
2014,08,29,17,08,21.10
2014,08,29,17,09,21.20
2014,08,29,17,10,21.20
2014,08,29,17,11,21.30
2014,08,29,17,12,21.30
2014,08,29,17,13,21.30
2014,08,29,17,14,21.40
2014,08,29,17,15,21.40
2014,08,29,17,16,21.40
2014,08,29,17,17,21.40
2014,08,29,17,18,21.40
2014,08,29,17,19,21.40